Location: Julian California
(33.0790°N, 116.6010°W)
Time: 19:03:45
(UTC-07:00)

Meteor 1-22 Rocket - Pass Details

Date: 14 June 2018
Orbit: 788 x 940 km, 81.2° (Epoch: 17 August)

Event Time Altitude Azimuth Distance (km) Brightness Sun altitude
Rises 20:28:45 0° 354° (N) 3,295 7.9 -6.6°
Reaches altitude 10° 20:31:07 10° 356° (N) 2,371 7.1 -7.0°
Maximum altitude 20:36:28 75° 82° (E) 843 4.1 -7.9°
Drops below altitude 10° 20:41:56 10° 167° (SSE) 2,433 6.2 -8.9°
Enters shadow 20:44:04 - 169° (S) 3,260 6.8 -9.2°
